Track RESURS DK-1 now! 10-day predictions RESURS DK-1 is classified as:
1 29228U 06021A 25187.34456486 .00001410 00000-0 90415-4 0 9994 2 29228 69.9319 153.3667 0003430 178.0771 182.0408 15.11055524 50292